{"data":{"norad_id":53802,"intl_designator":"2022-111AF","name":"STARLINK-4726","alt_names":[],"object_type":"PAYLOAD","status":"ACTIVE","operator":null,"country":"US","launch_date":"2022-09-11","launch_site_code":"AFETR","launch_vehicle":null,"mission":null,"orbit_class":"UNKNOWN","rcs_meters":null,"size_class":null,"mass_kg":null,"dimensions":null,"purposes":["comms"],"wikipedia_slug":null,"has_3d_model":false,"image_url":null,"decayed_at":null,"tle_current":{"epoch":"2026-05-25T02:24:02.714688Z","epoch_age_seconds":62303,"freshness":"FRESH","line1":"1 53802U 22111AF  26145.10003142  .00002211  00000+0  15693-3 0  9996","line2":"2 53802  53.2166 280.9667 0001391  84.2696 275.8454 15.08855464205356","mean_motion":15.08855464,"eccentricity":0.0001391,"inclination_deg":53.2166,"raan_deg":280.9667,"arg_perigee_deg":84.2696,"mean_anomaly_deg":275.8454,"bstar":0.00015693,"rev_number":20535,"period_min":95.436576554691,"perigee_km":538.73385151898,"apogee_km":540.65839269355,"semimajor_km":6917.8331221063,"source":"CELESTRAK","updated_at":"2026-05-25T13:38:17.565655Z"}}}